EN

Hourly Weather Bolshoe Kurapovo

Today, 29 October, Thursday

Time Temperature Precipitation Wind Pressure Humidity
00:00 +3°C° 0 mm 3 mps 757 mmHg 79%
01:00 +2°C° 0 mm 3 mps 757 mmHg 80%
02:00 +3°C° 0 mm 2 mps 757 mmHg 81%
03:00 +3°C° 0 mm 2 mps 757 mmHg 82%
04:00 +3°C° 0 mm 2 mps 757 mmHg 81%
05:00 +2°C° 0 mm 2 mps 757 mmHg 80%
06:00 +1°C° 0 mm 3 mps 757 mmHg 79%
07:00 +2°C° 0 mm 3 mps 757 mmHg 76%
08:00 +2°C° 0 mm 3 mps 757 mmHg 74%
09:00 +3°C° 0 mm 3 mps 757 mmHg 71%
10:00 +4°C° 0 mm 3 mps 757 mmHg 69%
11:00 +5°C° 0 mm 3 mps 757 mmHg 66%
12:00 +7°C° 0 mm 3 mps 757 mmHg 64%
13:00 +7°C° 0 mm 3 mps 756 mmHg 64%
14:00 +7°C° 0 mm 3 mps 756 mmHg 65%
15:00 +8°C° 0 mm 3 mps 756 mmHg 65%
16:00 +7°C° 0 mm 3 mps 755 mmHg 68%
17:00 +4°C° 0 mm 3 mps 755 mmHg 72%
18:00 +4°C° 0 mm 2 mps 755 mmHg 76%
19:00 +4°C° 0 mm 2 mps 755 mmHg 75%
20:00 +4°C° 0 mm 2 mps 755 mmHg 75%
21:00 +3°C° 0 mm 2 mps 755 mmHg 74%
22:00 +3°C° 0 mm 2 mps 754 mmHg 74%
23:00 +2°C° 0 mm 2 mps 754 mmHg 75%

Tomorrow, 30 October, Friday

Time Temperature Precipitation Wind Pressure Humidity
00:00 +2°C° 0 mm 2 mps 754 mmHg 75%
01:00 +2°C° 0 mm 2 mps 753 mmHg 75%
02:00 +2°C° 0 mm 2 mps 753 mmHg 76%
03:00 +2°C° 0 mm 2 mps 753 mmHg 76%
04:00 +2°C° 0 mm 2 mps 753 mmHg 75%
05:00 +3°C° 0 mm 2 mps 752 mmHg 73%
06:00 +3°C° 0 mm 2 mps 752 mmHg 72%
07:00 +4°C° 0 mm 2 mps 752 mmHg 72%
08:00 +4°C° 0 mm 2 mps 752 mmHg 72%
09:00 +4°C° 0 mm 2 mps 752 mmHg 71%
10:00 +5°C° 0 mm 2 mps 751 mmHg 71%
11:00 +5°C° 0 mm 2 mps 751 mmHg 70%
12:00 +6°C° 0 mm 2 mps 751 mmHg 70%
13:00 +6°C° 0 mm 2 mps 751 mmHg 70%
14:00 +7°C° 0 mm 2 mps 751 mmHg 71%
15:00 +7°C° 0 mm 2 mps 751 mmHg 72%
16:00 +6°C° 0 mm 2 mps 750 mmHg 77%
17:00 +6°C° 0 mm 1 mps 750 mmHg 82%
18:00 +6°C° 0 mm 1 mps 750 mmHg 87%
19:00 +5°C° 0 mm 1 mps 750 mmHg 90%
20:00 +5°C° 0 mm 1 mps 750 mmHg 92%
21:00 +5°C° 0 mm 1 mps 750 mmHg 95%
22:00 +5°C° 0 mm 1 mps 750 mmHg 95%
23:00 +4°C° 0 mm 0 mps 750 mmHg 95%

Day after tomorrow, 31 October, Saturday

Time Temperature Precipitation Wind Pressure Humidity
00:00 +3°C° 0 mm 0 mps 750 mmHg 95%
01:00 +3°C° 0 mm 0 mps 750 mmHg 95%
02:00 +3°C° 0 mm 0 mps 750 mmHg 95%
03:00 +3°C° 0 mm 0 mps 749 mmHg 95%
04:00 +3°C° 0 mm 0 mps 750 mmHg 95%
05:00 +3°C° 0 mm 0 mps 750 mmHg 95%
06:00 +3°C° 0 mm 0 mps 750 mmHg 95%
07:00 +3°C° 0 mm 0 mps 750 mmHg 94%
08:00 +5°C° 0 mm 1 mps 750 mmHg 93%
09:00 +5°C° 0 mm 1 mps 750 mmHg 92%
10:00 +6°C° 0 mm 1 mps 751 mmHg 86%
11:00 +8°C° 0 mm 1 mps 751 mmHg 81%
12:00 +9°C° 0 mm 1 mps 751 mmHg 75%
13:00 +9°C° 0 mm 1 mps 752 mmHg 75%
14:00 +9°C° 0 mm 1 mps 752 mmHg 74%
15:00 +10°C° 0 mm 1 mps 752 mmHg 74%
16:00 +8°C° 0 mm 1 mps 752 mmHg 79%
17:00 +7°C° 0 mm 1 mps 753 mmHg 85%
18:00 +6°C° 0 mm 1 mps 753 mmHg 90%
19:00 +6°C° 0 mm 1 mps 754 mmHg 92%
20:00 +6°C° 0 mm 1 mps 754 mmHg 93%
21:00 +4°C° 0 mm 2 mps 755 mmHg 94%
22:00 +4°C° 0 mm 2 mps 755 mmHg 94%
23:00 +4°C° 0 mm 2 mps 755 mmHg 94%

1 November, Sunday

Time Temperature Precipitation Wind Pressure Humidity
00:00 +4°C° 0 mm 2 mps 756 mmHg 94%
01:00 +4°C° 0 mm 2 mps 756 mmHg 94%
02:00 +4°C° 0 mm 2 mps 757 mmHg 94%
03:00 +4°C° 0 mm 2 mps 757 mmHg 94%
04:00 +3°C° 0 mm 3 mps 757 mmHg 93%
05:00 +3°C° 0 mm 3 mps 758 mmHg 93%
06:00 +3°C° 0 mm 3 mps 758 mmHg 92%
07:00 +3°C° 0 mm 3 mps 758 mmHg 91%
08:00 +4°C° 0 mm 2 mps 758 mmHg 90%
09:00 +4°C° 0 mm 2 mps 758 mmHg 89%
10:00 +4°C° 0 mm 2 mps 759 mmHg 86%
11:00 +4°C° 0 mm 2 mps 759 mmHg 84%
12:00 +4°C° 0 mm 2 mps 759 mmHg 82%
13:00 +5°C° 0 mm 2 mps 759 mmHg 81%
14:00 +5°C° 0 mm 2 mps 759 mmHg 80%
15:00 +5°C° 0 mm 2 mps 759 mmHg 79%
16:00 +5°C° 0 mm 2 mps 759 mmHg 80%
17:00 +5°C° 0 mm 2 mps 759 mmHg 81%
18:00 +4°C° 0 mm 2 mps 760 mmHg 82%
19:00 +4°C° 0 mm 2 mps 760 mmHg 84%
20:00 +4°C° 0 mm 2 mps 760 mmHg 86%
21:00 +4°C° 0 mm 2 mps 760 mmHg 88%
22:00 +4°C° 0 mm 2 mps 760 mmHg 88%
23:00 +4°C° 0 mm 2 mps 760 mmHg 88%

2 November, Monday

Time Temperature Precipitation Wind Pressure Humidity
00:00 +4°C° 0 mm 2 mps 760 mmHg 88%
01:00 +4°C° 0 mm 2 mps 760 mmHg 88%
02:00 +4°C° 0 mm 2 mps 760 mmHg 88%
03:00 +4°C° 0 mm 2 mps 760 mmHg 88%
04:00 +4°C° 0 mm 2 mps 760 mmHg 87%
05:00 +4°C° 0 mm 2 mps 761 mmHg 86%
06:00 +4°C° 0 mm 2 mps 761 mmHg 85%
07:00 +4°C° 0 mm 2 mps 761 mmHg 84%
08:00 +4°C° 0 mm 2 mps 761 mmHg 83%
09:00 +3°C° 0 mm 3 mps 761 mmHg 82%
10:00 +5°C° 0 mm 2 mps 761 mmHg 81%
11:00 +5°C° 0 mm 2 mps 761 mmHg 79%
12:00 +5°C° 0 mm 2 mps 761 mmHg 78%
13:00 +6°C° 0 mm 2 mps 761 mmHg 78%
14:00 +6°C° 0 mm 2 mps 762 mmHg 77%
15:00 +6°C° 0 mm 2 mps 762 mmHg 77%
16:00 +6°C° 0 mm 2 mps 762 mmHg 79%
17:00 +5°C° 0 mm 2 mps 762 mmHg 81%
18:00 +5°C° 0 mm 2 mps 762 mmHg 83%
19:00 +5°C° 0 mm 2 mps 762 mmHg 86%
20:00 +5°C° 0 mm 2 mps 762 mmHg 88%
21:00 +4°C° 0 mm 2 mps 762 mmHg 90%
22:00 +4°C° 0 mm 2 mps 763 mmHg 92%
23:00 +4°C° 0 mm 2 mps 763 mmHg 94%

3 November, Tuesday

Time Temperature Precipitation Wind Pressure Humidity
00:00 +3°C° 0 mm 2 mps 763 mmHg 95%
01:00 +3°C° 0 mm 2 mps 763 mmHg 95%
02:00 +3°C° 0 mm 2 mps 763 mmHg 96%
03:00 +3°C° 0 mm 2 mps 763 mmHg 96%
04:00 +3°C° 0 mm 2 mps 763 mmHg 96%
05:00 +3°C° 0 mm 2 mps 763 mmHg 96%
06:00 +3°C° 0 mm 2 mps 763 mmHg 96%
07:00 +3°C° 0 mm 2 mps 764 mmHg 96%
08:00 +4°C° 0 mm 2 mps 764 mmHg 95%
09:00 +4°C° 0 mm 2 mps 764 mmHg 94%
10:00 +5°C° 0 mm 2 mps 764 mmHg 90%
11:00 +7°C° 0 mm 2 mps 764 mmHg 85%
12:00 +8°C° 0 mm 2 mps 764 mmHg 80%
13:00 +8°C° 0 mm 2 mps 764 mmHg 79%
14:00 +9°C° 0 mm 2 mps 764 mmHg 78%
15:00 +9°C° 0 mm 2 mps 764 mmHg 78%
16:00 +8°C° 0 mm 2 mps 764 mmHg 82%
17:00 +7°C° 0 mm 2 mps 764 mmHg 87%
18:00 +6°C° 0 mm 2 mps 764 mmHg 92%
19:00 +6°C° 0 mm 2 mps 764 mmHg 92%
20:00 +6°C° 0 mm 2 mps 764 mmHg 93%
21:00 +6°C° 0 mm 2 mps 764 mmHg 93%
22:00 +5°C° 0 mm 2 mps 764 mmHg 93%
23:00 +5°C° 0 mm 2 mps 764 mmHg 93%
Show more